Location: Melbourne
(37.8666°S, 145.1333°E)
Time: 23:52:47
(UTC+10:00)

Amateur Radio Satellites - All Passes

Search period start: 27 May 2015 23:22
Search period end: 28 May 2015 23:22
Location: Melbourne, 37.8666°S, 145.1333°E

Satellite Date Start Highest point End Downlink Frequencies (MHz)
Time Altitude Azimuth
QB50P2 27 May 23:23:32 23:27:17 29° 276° (W) 23:31:00 145.880/145.840
Cosmos 2504 27 May 23:27:03 23:33:14 24° 246° (WSW) 23:39:29 435.465 / 435.565
ANTELSAT 27 May 23:30:03 23:31:57 12° 269° (W) 23:33:38 437.575/2403.000
ZACube-1 27 May 23:30:10 23:33:17 18° 248° (WSW) 23:36:17 437.345
CUBEBUG 2 27 May 23:30:29 23:32:28 12° 246° (WSW) 23:34:13 437.445
UKube-1 27 May 23:30:57 23:35:01 37° 252° (WSW) 23:39:01 .
POPSAT HIP 1 27 May 23:36:15 23:39:36 22° 274° (W) 23:42:53 437.405
DUCHIFAT 1 27 May 23:38:03 23:41:22 21° 274° (W) 23:44:35 145.980
DX 1 27 May 23:40:16 23:44:04 28° 250° (WSW) 23:47:45 434.975-435.025
Oscar 19 27 May 23:45:23 23:48:23 16° 115° (ESE) 23:51:37 437.125/150
RS-15 27 May 23:48:17 23:57:47 24° 206° (SSW) 00:06:44 29.354- 29.394
CUSAT 1 27 May 23:51:27 23:52:18 11° 84° (E) 23:53:17 437.405
CUBEBUG 1 27 May 23:52:19 23:56:44 83° 256° (WSW) 00:01:05 437.445
VELOX 1 27 May 23:54:59 23:59:11 39° 252° (WSW) 00:03:17 145.980
ESTCUBE 1 27 May 23:58:30 00:03:02 62° 255° (WSW) 00:07:30 437.505/2401.250
BUGSAT 1 28 May 00:00:44 00:03:33 17° 272° (W) 00:06:13 437.445
50 SAT 28 May 00:15:48 00:18:37 18° 249° (WSW) 00:21:18 437.505
AISAT 28 May 00:27:38 00:30:44 18° 247° (WSW) 00:33:40 437.250
SPROUT 28 May 00:30:07 00:34:29 71° 80° (E) 00:38:48 437.525
SRMSAT 28 May 00:36:16 00:38:42 13° 5° (N) 00:41:10 437.500
Gurwin Techsat 1B 28 May 00:39:28 00:42:20 15° 116° (ESE) 00:45:28 435.225
SO-50 28 May 00:46:34 00:50:17 27° 294° (WNW) 00:53:58 436.795
GONETS M04 28 May 00:51:53 01:00:33 76° 86° (E) 01:09:19
TISAT 1 28 May 00:52:25 00:56:43 89° 256° (WSW) 01:00:57 437.305
DANDE 28 May 01:02:17 01:06:07 88° 80° (E) 01:09:12 436.750
JUGNU 28 May 01:07:17 01:09:12 11° 353° (N) 01:11:05 437.505
Oscar 19 28 May 01:22:13 01:27:17 59° 281° (W) 01:32:26 437.125/150
CUSAT 1 28 May 01:32:26 01:34:50 19° 257° (WSW) 01:36:57 437.405
ITAMSAT 1 28 May 01:36:55 01:42:02 56° 107° (ESE) 01:47:14 435.822/435.867
ITUPSAT 1 28 May 01:52:28 01:57:16 58° 80° (E) 02:02:01 437.325
BEESAT 28 May 01:59:54 02:04:46 71° 78° (ENE) 02:09:33 436.000
Cosmos 2499 28 May 02:00:18 02:07:12 39° 93° (E) 02:14:48 435.465 / 435.565
KKS-1 28 May 02:00:53 02:02:01 11° 91° (E) 02:03:26 437.445
O/OREOS (USA 219) 28 May 02:05:43 02:08:12 15° 80° (E) 02:10:56 437.305
SWISSCUBE 28 May 02:08:28 02:13:21 86° 258° (WSW) 02:18:09 437.505
RS-15 28 May 02:09:07 02:16:20 17° 171° (S) 02:23:31 29.354- 29.394
SPROUT 28 May 02:09:44 02:10:03 10° 245° (WSW) 02:10:05 437.525
Gurwin Techsat 1B 28 May 02:16:28 02:21:48 68° 282° (WNW) 02:27:11 435.225
AO-7 28 May 02:20:28 02:27:43 35° 118° (ESE) 02:35:09 29.400- 29.500
SRMSAT 28 May 02:24:33 02:27:03 13° 355° (N) 02:29:30 437.500
JAS-2 28 May 02:42:35 02:48:27 45° 111° (ESE) 02:55:11 435.910
GONETS M04 28 May 02:51:58 02:58:29 22° 244° (WSW) 03:04:38
STARS 28 May 03:01:46 03:05:49 33° 83° (E) 03:09:52 437.465
ITAMSAT 1 28 May 03:18:35 03:21:58 16° 271° (W) 03:25:07 435.822/435.867
HORYU 2 28 May 03:23:35 03:28:02 78° 282° (WNW) 03:32:35 437.375
ITUPSAT 1 28 May 03:31:54 03:34:42 15° 245° (WSW) 03:37:18 437.325
KKS-1 28 May 03:34:40 03:39:09 61° 255° (WSW) 03:43:34 437.445
BEESAT 28 May 03:40:00 03:42:03 12° 244° (WSW) 03:43:51 436.000
O/OREOS (USA 219) 28 May 03:42:51 03:47:15 47° 245° (WSW) 03:51:44 437.305
Cosmos 2499 28 May 03:53:06 04:00:20 40° 253° (WSW) 04:08:05 435.465 / 435.565
AO-7 28 May 04:12:08 04:20:16 52° 281° (W) 04:28:24 29.400- 29.500
Cubesat XI-IV 28 May 04:17:11 04:18:49 12° 119° (ESE) 04:20:46 437.490
RS-15 28 May 04:22:56 04:33:34 39° 139° (SE) 04:43:53 29.354- 29.394
JAS-2 28 May 04:28:24 04:33:48 29° 271° (W) 04:39:41 435.910
STARS 28 May 04:38:42 04:42:04 21° 248° (WSW) 04:45:20 437.465
YUBILEINY 28 May 04:40:58 04:46:23 18° 118° (ESE) 04:52:18 435.215
BEESAT 2 28 May 04:49:18 04:52:22 22° 67° (ENE) 04:55:30 435.950
MOZHAYETS 4 28 May 05:06:47 05:11:32 80° 257° (WSW) 05:16:10
CUTE-I 28 May 05:32:11 05:37:28 58° 107° (ESE) 05:42:49 437.470
BEESAT 3 28 May 05:36:42 05:40:38 78° 238° (WSW) 05:44:34 437.485
Cubesat XI-IV 28 May 05:52:48 05:58:13 90° 16° (NNE) 06:03:42 437.490
HO-68 28 May 06:15:34 06:18:17 13° 125° (SE) 06:21:26 435.675
AIST 2 28 May 06:19:27 06:23:27 64° 62° (ENE) 06:27:29 435.215
PRISM 28 May 06:20:59 06:23:53 18° 87° (E) 06:26:53 437.425
BEESAT 2 28 May 06:26:53 06:30:19 28° 232° (SW) 06:33:45 435.950
RS-15 28 May 06:35:28 06:46:49 65° 294° (WNW) 06:57:34 29.354- 29.394
YUBILEINY 28 May 06:35:42 06:44:41 89° 276° (W) 06:53:32 435.215
Cosmos 2491 28 May 06:37:04 06:45:26 53° 89° (E) 06:53:54 435.465 / 435.565
M-CUBED/EXP-1 PRIME 28 May 06:38:24 06:40:46 14° 86° (E) 06:43:22 437.505
STRAND 1 28 May 06:41:11 06:45:42 31° 84° (E) 06:50:15 437.568
AUBIESAT-1 28 May 06:45:56 06:48:27 15° 86° (E) 06:51:10 437.475
CUBESAT XI-V 28 May 06:47:04 06:51:47 87° 257° (WSW) 06:56:25 437.345
CANX-2 28 May 07:10:24 07:12:59 16° 112° (ESE) 07:15:45 2200.000
CUTE 1.7 + AOD 2 28 May 07:13:54 07:16:27 16° 112° (ESE) 07:19:12 437.475
CUTE-I 28 May 07:14:32 07:18:00 16° 270° (W) 07:21:15 437.470
AIST 1 28 May 07:25:10 07:28:30 22° 91° (E) 07:31:58
Cosmos 2504 28 May 07:26:36 07:33:07 23° 115° (ESE) 07:39:57 435.465 / 435.565
GOMX 1 28 May 07:30:49 07:35:00 39° 107° (ESE) 07:39:03 467.674
BRITE-PL 28 May 07:31:03 07:35:48 68° 103° (ESE) 07:40:16 437.365/2234.400
SEEDS 28 May 07:34:47 07:38:02 22° 111° (ESE) 07:41:25 437.485
COMPASS 1 28 May 07:46:53 07:50:15 24° 110° (ESE) 07:53:46 437.405
PRISM 28 May 07:55:39 07:59:26 32° 251° (WSW) 08:03:08 437.425
HO-68 28 May 07:57:48 08:04:54 72° 108° (ESE) 08:12:08 435.675
AAUSAT CUBESAT 2 28 May 07:58:17 08:01:50 27° 109° (ESE) 08:05:30 437.432
AIST 2 28 May 08:00:28 08:02:28 13° 224° (SW) 08:04:21 435.215
CINEMA 3 28 May 08:02:06 08:05:28 24° 109° (ESE) 08:08:57 145.822/145.860
M-CUBED/EXP-1 PRIME 28 May 08:11:09 08:16:01 62° 250° (WSW) 08:20:44 437.505
AUBIESAT-1 28 May 08:18:48 08:23:35 59° 250° (WSW) 08:28:15 437.475
STRAND 1 28 May 08:20:23 08:24:51 29° 248° (WSW) 08:29:11 437.568
DELFI C3 28 May 08:22:22 08:24:54 17° 112° (ESE) 08:27:35 145.870
DOVE 4 28 May 08:28:06 08:32:29 74° 282° (WNW) 08:36:45 437.250
Cosmos 2491 28 May 08:35:04 08:42:44 31° 250° (WSW) 08:50:12 435.465 / 435.565
YUBILEINY 28 May 08:35:17 08:40:24 16° 260° (W) 08:44:53 435.215
CANX-2 28 May 08:44:33 08:48:36 41° 278° (W) 08:52:43 2200.000
ZACube-1 28 May 08:47:53 08:51:16 25° 110° (ESE) 08:54:46 437.345
CUTE 1.7 + AOD 2 28 May 08:48:00 08:52:03 41° 278° (W) 08:56:10 437.475
CUBEBUG 2 28 May 08:48:36 08:52:29 40° 107° (ESE) 08:56:29 437.445
UKube-1 28 May 08:50:09 08:52:04 13° 115° (ESE) 08:54:12 .
RS-15 28 May 08:54:48 08:57:15 10° 277° (W) 08:58:22 29.354- 29.394
Oscar 11 28 May 08:57:59 09:02:16 62° 105° (ESE) 09:06:38 145.826/435.025
DX 1 28 May 08:58:52 09:01:45 18° 113° (ESE) 09:04:46 434.975-435.025
AIST 1 28 May 09:02:08 09:06:01 28° 256° (WSW) 09:09:53
SEEDS 28 May 09:09:58 09:13:41 28° 275° (W) 09:17:25 437.485
GOMX 1 28 May 09:10:23 09:13:20 16° 272° (W) 09:16:02 467.674
BRITE-PL 28 May 09:14:14 09:14:47 10° 269° (W) 09:15:01 437.365/2234.400
VELOX 1 28 May 09:16:30 09:18:36 14° 114° (ESE) 09:20:56 145.980
Cosmos 2504 28 May 09:18:37 09:27:33 76° 274° (W) 09:36:19 435.465 / 435.565
COMPASS 1 28 May 09:22:17 09:25:51 26° 275° (W) 09:29:25 437.405
50 SAT 28 May 09:24:40 09:26:54 15° 112° (ESE) 09:29:19 437.505
AAUSAT CUBESAT 2 28 May 09:34:06 09:37:26 22° 274° (W) 09:40:45 437.432
UWE-3 28 May 09:34:12 09:38:22 72° 281° (W) 09:42:36 435.000/436.395/437.385
CINEMA 3 28 May 09:39:11 09:42:40 24° 274° (W) 09:46:04 145.822/145.860
FUNcube-1 28 May 09:42:19 09:46:29 77° 282° (WNW) 09:50:45 145.935
ANTELSAT 28 May 09:45:45 09:47:59 14° 90° (E) 09:50:29 437.575/2403.000
AISAT 28 May 09:46:28 09:50:18 29° 110° (ESE) 09:54:13 437.250
HO-68 28 May 09:48:18 09:53:22 19° 270° (W) 09:58:07 435.675
DELFI C3 28 May 09:55:56 09:59:44 36° 277° (W) 10:03:33 145.870
ISS 28 May 10:00:40 10:03:33 28° 47° (NE) 10:06:28 145.825
HUMSAT D 28 May 10:11:20 10:15:27 77° 283° (WNW) 10:19:40 437.325/437.525
TIGRISAT 28 May 10:16:48 10:20:50 29° 85° (E) 10:24:57 435.000
UKube-1 28 May 10:23:29 10:27:47 55° 280° (W) 10:32:07 .
ZACube-1 28 May 10:24:08 10:27:35 24° 274° (W) 10:31:01 437.345
CUSAT 1 28 May 10:26:54 10:28:03 11° 107° (ESE) 10:29:34 437.405
CUBEBUG 2 28 May 10:27:02 10:29:28 14° 271° (W) 10:31:43 437.445
QB50P1 28 May 10:31:26 10:34:14 17° 88° (E) 10:37:10 145.935-145.965
DX 1 28 May 10:33:35 10:37:43 39° 278° (W) 10:41:52 434.975-435.025
POLYITAN 1 28 May 10:33:40 10:36:41 19° 87° (E) 10:39:48 437.675
UNISAT 6 28 May 10:37:11 10:41:45 50° 81° (E) 10:46:21 437.425
Oscar 11 28 May 10:38:05 10:38:57 10° 268° (W) 10:39:31 145.826/435.025
CUBEBUG 1 28 May 10:46:20 10:50:44 65° 104° (ESE) 10:55:10 437.445
VELOX 1 28 May 10:50:20 10:54:44 55° 280° (W) 10:59:10 145.980
ESTCUBE 1 28 May 10:55:54 11:00:30 85° 284° (WNW) 11:05:09 437.505/2401.250
50 SAT 28 May 10:57:44 11:01:20 35° 277° (W) 11:04:59 437.505
NANOSAT C BR1 28 May 11:01:34 11:05:34 38° 83° (E) 11:09:34 145.865
GONETS M04 28 May 11:04:48 11:12:33 34° 109° (ESE) 11:20:28
QB50P2 28 May 11:10:01 11:14:13 50° 81° (E) 11:18:24 145.880/145.840
PCSat 28 May 11:15:11 11:19:03 21° 73° (ENE) 11:23:08 145.827
Cosmos 2504 28 May 11:15:36 11:19:42 13° 258° (WSW) 11:23:04 435.465 / 435.565
ANTELSAT 28 May 11:20:33 11:25:09 55° 254° (WSW) 11:29:45 437.575/2403.000
POPSAT HIP 1 28 May 11:22:02 11:26:20 68° 79° (ENE) 11:30:35 437.405
SPROUT 28 May 11:22:27 11:26:32 42° 107° (ESE) 11:30:40 437.525
AISAT 28 May 11:23:15 11:26:53 23° 274° (W) 11:30:27 437.250
DUCHIFAT 1 28 May 11:23:19 11:27:36 69° 79° (E) 11:31:51 145.980
ISS 28 May 11:36:59 11:39:56 29° 211° (SSW) 11:42:55 145.825
DANDE 28 May 11:41:26 11:45:03 48° 100° (E) 11:49:48 436.750
TISAT 1 28 May 11:42:37 11:46:44 53° 106° (ESE) 11:50:54 437.305
BUGSAT 1 28 May 11:43:02 11:47:09 79° 78° (ENE) 11:51:14 437.445
TIGRISAT 28 May 11:53:34 11:57:29 26° 250° (WSW) 12:01:21 435.000
Cosmos 2499 28 May 11:55:18 11:58:56 13° 122° (ESE) 12:03:14 435.465 / 435.565
QB50P1 28 May 12:06:18 12:10:15 36° 252° (WSW) 12:14:09 145.935-145.965
CUSAT 1 28 May 12:06:39 12:10:40 56° 278° (W) 12:15:57 437.405
POLYITAN 1 28 May 12:08:47 12:12:42 33° 252° (WSW) 12:16:33 437.675
UNISAT 6 28 May 12:15:14 12:18:10 16° 247° (WSW) 12:20:57 437.425
O/OREOS (USA 219) 28 May 12:15:51 12:19:33 23° 121° (ESE) 12:23:19 437.305
CUBEBUG 1 28 May 12:27:07 12:27:37 10° 268° (W) 12:27:49 437.445
NANOSAT C BR1 28 May 12:38:16 12:41:08 17° 248° (WSW) 12:43:51 145.865
QB50P2 28 May 12:47:30 12:49:43 14° 246° (WSW) 12:51:46 145.880/145.840
PCSat 28 May 12:56:55 13:02:09 49° 238° (WSW) 13:07:27 145.827
ITUPSAT 1 28 May 12:57:19 13:02:02 54° 106° (ESE) 13:06:50 437.325
VERMONT LUNAR 28 May 12:58:25 13:01:35 45° 25° (NNE) 13:04:48 437.305
SPROUT 28 May 13:00:17 13:02:52 15° 271° (W) 13:05:17 437.525
POPSAT HIP 1 28 May 13:00:59 13:01:41 10° 245° (WSW) 13:02:07 437.405
GONETS M04 28 May 13:01:18 13:09:42 49° 270° (W) 13:18:00
DUCHIFAT 1 28 May 13:02:31 13:02:54 10° 245° (WSW) 13:03:01 145.980
BEESAT 28 May 13:04:22 13:09:09 66° 106° (ESE) 13:14:01 436.000
BEESAT 2 28 May 13:11:26 13:12:09 10° 138° (SE) 13:13:04 435.950
SWISSCUBE 28 May 13:12:58 13:17:49 88° 113° (ESE) 13:22:44 437.505
SO-50 28 May 13:20:44 13:22:56 14° 70° (ENE) 13:25:21 436.795
TISAT 1 28 May 13:21:18 13:22:54 12° 270° (W) 13:24:15 437.305
DANDE 28 May 13:27:27 13:28:17 10° 275° (W) 13:28:50 436.750
Oscar 19 28 May 13:35:31 13:40:40 57° 80° (E) 13:45:48 437.125/150
PHONESAT 2.4 28 May 13:37:44 13:40:47 27° 30° (NNE) 13:43:53 2401.200-2431.200
Cosmos 2499 28 May 13:45:09 13:54:08 71° 100° (E) 14:02:49 435.465 / 435.565
ITAMSAT 1 28 May 13:52:24 13:56:25 23° 87° (E) 14:00:32 435.822/435.867
O/OREOS (USA 219) 28 May 13:54:53 13:59:04 33° 284° (WNW) 14:03:09 437.305
BEESAT 3 28 May 13:57:02 14:00:39 34° 127° (SE) 14:04:18 437.485
STARS 28 May 13:57:19 14:00:51 25° 111° (ESE) 14:04:30 437.465
KKS-1 28 May 14:30:43 14:35:11 85° 284° (WNW) 14:39:43 437.445
Gurwin Techsat 1B 28 May 14:34:35 14:39:53 57° 80° (E) 14:45:08 435.225
VERMONT LUNAR 28 May 14:35:29 14:38:47 59° 189° (S) 14:42:07 437.305
ITUPSAT 1 28 May 14:37:33 14:40:21 15° 270° (W) 14:42:54 437.325
AIST 2 28 May 14:42:59 14:46:25 25° 130° (SE) 14:49:57 435.215
BEESAT 28 May 14:45:40 14:47:33 12° 269° (W) 14:49:08 436.000
BEESAT 2 28 May 14:46:49 14:50:50 83° 301° (WNW) 14:54:50 435.950
SO-50 28 May 14:58:31 15:03:05 58° 236° (WSW) 15:07:32 436.795
PHONESAT 2.4 28 May 15:15:08 15:18:43 81° 195° (SSW) 15:22:20 2401.200-2431.200
Oscar 19 28 May 15:16:11 15:19:36 17° 245° (WSW) 15:22:49 437.125/150
HORYU 2 28 May 15:17:16 15:20:53 23° 86° (E) 15:24:34 437.375
ITAMSAT 1 28 May 15:31:12 15:36:06 40° 251° (WSW) 15:40:54 435.822/435.867
STARS 28 May 15:33:25 15:37:12 27° 276° (W) 15:40:59 437.465
BEESAT 3 28 May 15:35:36 15:38:25 18° 292° (WNW) 15:41:08 437.485
JAS-2 28 May 15:38:04 15:45:46 52° 83° (E) 15:53:07 435.910
Cosmos 2499 28 May 15:39:44 15:46:33 24° 263° (W) 15:52:51 435.465 / 435.565
MOZHAYETS 4 28 May 16:06:33 16:11:12 78° 105° (ESE) 16:15:55
VERMONT LUNAR 28 May 16:12:54 16:16:13 58° 172° (S) 16:19:33 437.305
AO-7 28 May 16:15:25 16:23:42 63° 77° (ENE) 16:31:55 29.400- 29.500
Gurwin Techsat 1B 28 May 16:15:49 16:19:27 18° 245° (WSW) 16:22:51 435.225
AIST 2 28 May 16:21:24 16:24:58 28° 294° (WNW) 16:28:31 435.215
ISS 28 May 16:29:42 16:32:24 23° 152° (SSE) 16:35:07 145.825
Cosmos 2491 28 May 16:50:22 16:56:55 24° 114° (ESE) 17:03:47 435.465 / 435.565
PHONESAT 2.4 28 May 16:53:30 16:57:03 54° 178° (S) 17:00:36 2401.200-2431.200
HORYU 2 28 May 16:53:31 16:57:33 30° 250° (WSW) 17:01:30 437.375
PRISM 28 May 17:10:48 17:12:23 12° 115° (ESE) 17:14:12 437.425
JAS-2 28 May 17:23:31 17:30:28 34° 246° (WSW) 17:37:03 435.910
M-CUBED/EXP-1 PRIME 28 May 17:25:56 17:27:24 12° 122° (ESE) 17:29:08 437.505
AUBIESAT-1 28 May 17:32:53 17:34:33 13° 121° (ESE) 17:36:27 437.475
YUBILEINY 28 May 17:40:40 17:46:31 21° 98° (E) 17:52:52 435.215
CUBESAT XI-V 28 May 17:48:15 17:52:59 74° 105° (ESE) 17:57:46 437.345
VERMONT LUNAR 28 May 17:50:11 17:53:27 49° 336° (NNW) 17:56:42 437.305
CUTE-I 28 May 17:51:45 17:56:12 26° 86° (E) 18:00:41 437.470
STRAND 1 28 May 17:55:10 17:59:53 38° 109° (ESE) 18:04:43 437.568
ISS 28 May 18:05:48 18:08:57 41° 315° (NW) 18:12:02 145.825
AO-7 28 May 18:09:05 18:16:01 29° 239° (WSW) 18:22:42 29.400- 29.500
Cubesat XI-IV 28 May 18:12:14 18:17:20 42° 82° (E) 18:22:24 437.490
PHONESAT 2.4 28 May 18:31:43 18:35:20 80° 344° (NNW) 18:38:55 2401.200-2431.200
PRISM 28 May 18:43:13 18:47:23 56° 280° (W) 18:51:37 437.425
RS-15 28 May 18:45:46 18:54:39 26° 76° (ENE) 19:04:05 29.354- 29.394
Cosmos 2491 28 May 18:45:58 18:54:43 70° 274° (W) 19:03:23 435.465 / 435.565
M-CUBED/EXP-1 PRIME 28 May 18:57:50 19:01:39 59° 285° (WNW) 19:05:53 437.505
AUBIESAT-1 28 May 19:04:55 19:08:45 56° 284° (WNW) 19:12:58 437.475
AIST 1 28 May 19:10:34 19:14:52 57° 100° (E) 19:19:05
HO-68 28 May 19:30:22 19:33:23 13° 93° (E) 19:36:57 435.675
CUTE-I 28 May 19:31:27 19:36:22 36° 250° (WSW) 19:41:10 437.470
YUBILEINY 28 May 19:33:47 19:42:32 74° 261° (W) 19:51:26 435.215
STRAND 1 28 May 19:35:01 19:39:13 24° 274° (W) 19:43:20 437.568
GOMX 1 28 May 19:35:25 19:37:16 13° 89° (E) 19:39:25 467.674
BRITE-PL 28 May 19:37:49 19:41:09 22° 86° (E) 19:44:43 437.365/2234.400
Cubesat XI-IV 28 May 19:52:56 19:57:12 24° 246° (WSW) 20:01:18 437.490
PCSat 28 May 20:04:42 20:07:32 14° 137° (SE) 20:10:34 145.827
Cosmos 2504 28 May 20:05:20 20:09:24 16° 101° (E) 20:14:08 435.465 / 435.565
PHONESAT 2.4 28 May 20:10:29 20:13:09 19° 327° (NNW) 20:15:46 2401.200-2431.200
DOVE 4 28 May 20:28:30 20:32:31 32° 83° (E) 20:36:45 437.250
CANX-2 28 May 20:31:34 20:35:39 38° 83° (E) 20:39:43 2200.000
CUTE 1.7 + AOD 2 28 May 20:34:57 20:39:01 37° 83° (E) 20:43:04 437.475
CUBEBUG 2 28 May 20:43:41 20:44:34 11° 92° (E) 20:45:47 437.445
Cosmos 2491 28 May 20:48:03 20:50:11 11° 257° (WSW) 20:51:30 435.465 / 435.565
Oscar 11 28 May 20:48:57 20:50:57 13° 90° (E) 20:53:12 145.826/435.025
AIST 1 28 May 20:51:29 20:52:02 10° 265° (W) 20:52:17
RS-15 28 May 20:53:44 21:06:07 83° 238° (WSW) 21:18:19 29.354- 29.394
SEEDS 28 May 20:55:29 20:59:45 53° 81° (E) 21:03:58 437.485
COMPASS 1 28 May 21:06:43 21:11:00 57° 80° (E) 21:15:11 437.405
GOMX 1 28 May 21:11:28 21:15:45 52° 255° (WSW) 21:20:14 467.674
TIGRISAT 28 May 21:14:44 21:17:47 20° 112° (ESE) 21:21:02 435.000
HO-68 28 May 21:14:55 21:22:14 87° 76° (ENE) 21:29:29 435.675
BRITE-PL 28 May 21:16:01 21:19:45 28° 252° (WSW) 21:23:32 437.365/2234.400
AAUSAT CUBESAT 2 28 May 21:17:46 21:22:04 66° 80° (E) 21:26:17 437.432
QB50P1 28 May 21:24:20 21:25:30 11° 115° (ESE) 21:26:56 145.935-145.965
UWE-3 28 May 21:25:57 21:29:45 26° 85° (E) 21:33:42 435.000/436.395/437.385
POLYITAN 1 28 May 21:26:35 21:28:10 12° 114° (ESE) 21:30:00 437.675
FUNcube-1 28 May 21:32:47 21:36:23 24° 86° (E) 21:40:07 145.935
CINEMA 3 28 May 21:34:08 21:38:43 83° 78° (ENE) 21:43:29 145.822/145.860
UNISAT 6 28 May 21:34:49 21:38:41 34° 109° (ESE) 21:42:41 437.425
DELFI C3 28 May 21:36:56 21:40:41 33° 84° (E) 21:44:24 145.870
YUBILEINY 28 May 21:37:06 21:41:21 13° 238° (WSW) 21:44:55 435.215
PCSat 28 May 21:46:20 21:51:49 90° 272° (W) 21:57:15 145.827
NANOSAT C BR1 28 May 21:52:50 21:56:09 23° 110° (ESE) 21:59:36 145.865
Cosmos 2504 28 May 21:54:02 22:01:41 85° 263° (W) 22:10:03 435.465 / 435.565
HUMSAT D 28 May 21:57:54 22:01:04 20° 87° (E) 22:04:21 437.325/437.525
QB50P2 28 May 22:01:24 22:05:06 30° 109° (ESE) 22:08:53 145.880/145.840
DOVE 4 28 May 22:06:40 22:10:10 22° 250° (WSW) 22:13:40 437.250
CANX-2 28 May 22:08:18 22:11:19 18° 248° (WSW) 22:14:10 2200.000
CUTE 1.7 + AOD 2 28 May 22:11:37 22:14:40 18° 248° (WSW) 22:17:34 437.475
POPSAT HIP 1 28 May 22:13:04 22:17:00 39° 107° (ESE) 22:21:02 437.405
UKube-1 28 May 22:13:11 22:16:54 27° 84° (E) 22:20:39 .
ZACube-1 28 May 22:13:12 22:17:44 70° 78° (ENE) 22:22:18 437.345
DUCHIFAT 1 28 May 22:13:56 22:17:51 39° 107° (ESE) 22:21:51 145.980
CUBEBUG 2 28 May 22:17:12 22:21:44 67° 256° (WSW) 22:26:22 437.445
ANTELSAT 28 May 22:17:41 22:21:59 77° 282° (WNW) 22:26:25 437.575/2403.000
Oscar 11 28 May 22:23:11 22:27:30 50° 254° (WSW) 22:31:44 145.826/435.025
DX 1 28 May 22:23:35 22:27:42 38° 82° (E) 22:31:48 434.975-435.025
BUGSAT 1 28 May 22:31:13 22:35:08 42° 107° (ESE) 22:39:06 437.445
SEEDS 28 May 22:32:59 22:35:07 13° 246° (WSW) 22:37:03 437.485
50 SAT 28 May 22:35:47 22:39:20 29° 84° (E) 22:42:54 437.505
CUBEBUG 1 28 May 22:38:47 22:40:54 14° 90° (E) 22:43:14 437.445
VELOX 1 28 May 22:42:55 22:46:52 31° 84° (E) 22:50:50 145.980
COMPASS 1 28 May 22:44:24 22:46:12 12° 246° (WSW) 22:47:47 437.405
TIGRISAT 28 May 22:50:27 22:54:20 33° 276° (W) 22:58:18 435.000
ESTCUBE 1 28 May 22:51:12 22:54:49 23° 86° (E) 22:58:28 437.505/2401.250
AAUSAT CUBESAT 2 28 May 22:56:11 22:57:09 10° 245° (WSW) 22:57:52 437.432
QB50P1 28 May 22:56:42 23:00:54 61° 280° (W) 23:05:09 145.935-145.965
POLYITAN 1 28 May 22:59:29 23:03:39 55° 280° (W) 23:07:52 437.675
UWE-3 28 May 23:02:22 23:06:14 27° 251° (WSW) 23:10:06 435.000/436.395/437.385
JUGNU 28 May 23:03:26 23:05:59 13° 2° (N) 23:08:32 437.505
HO-68 28 May 23:04:30 23:09:09 18° 238° (WSW) 23:13:28 435.675
FUNcube-1 28 May 23:08:46 23:12:43 30° 251° (WSW) 23:16:38 145.935
UNISAT 6 28 May 23:12:29 23:15:36 19° 272° (W) 23:18:39 437.425
DELFI C3 28 May 23:12:40 23:15:34 18° 249° (WSW) 23:18:20 145.870
